Regional Weather Roundup
Issued by NWS Charleston, SC

Current Version | Previous Version | Graphics & Text | Print | Product List | Glossary On
Versions: 1 2 3 4 5 6 7 8 9 10 11 12 13 14 15 16 17 18 19 20 21 22 23 24 25 26 27 28 29 30 31 32 33 34 35 36 37 38 39 40 41 42 43 44 45 46 47 48 49 50
000
ASUS42 KCHS 121710
RWRCHS

REGIONAL WEATHER ROUNDUP
NATIONAL WEATHER SERVICE CHARLESTON SC
100 PM EDT SAT JUL 12 2014

NOTE: "FAIR" INDICATES FEW OR NO CLOUDS BELOW 12,000 FEET WITH NO
SIGNIFICANT WEATHER AND/OR OBSTRUCTIONS TO VISIBILITY.

NOT ALL STATIONS ARE QUALITY CONTROLLED BY THE NATIONAL
WEATHER SERVICE. USE DATA WITH CAUTION...ESPECIALLY
DEWPOINT OBSERVATIONS.

SCZ027-030-031-034>040-042>050-121800-
...SOUTH CAROLINA...

CITY           SKY/WX    TMP DP  RH WIND       PRES   REMARKS
N CHARLESTON   TSTM      75  72  88 E15G23    30.22R FOG
WATERFRONT PRK   N/A     82 N/A N/A CALM        N/A
FORT JOHNSON   NOT AVBL
MOUNT PLEASANT LGT RAIN  77  75  94 NE3       30.20F
JOHNS ISLAND   MOSUNNY   82  64  54 S5        30.20S
PINOPOLIS        N/A     86  73  66 N5        30.11F HX  93
MONCKS CORNER    N/A     79  75  89 CALM      30.20R
SUMMERVILLE    PTSUNNY   77  75  94 SW3       30.20F THUNDER
BEAUFORT MCAS  CLOUDY    83  74  74 S3        30.19F
BEAUFORT ARPT  FAIR      79  73  83 CALM      30.19F
HILTON HEAD IS SUNNY     77  75  94 CALM      30.20F
GEORGETOWN     NOT AVBL
WALTERBORO     PTSUNNY   82  77  83 E5        30.20S HX  91
ORANGEBURG     SUNNY     88  69  53 E6        30.19F HX  92
BARNWELL       PTSUNNY   86  73  66 S7        30.19F HX  93
AIKEN          FAIR      88  72  58 E5        30.23F HX  94
MANNING        PTSUNNY   88  73  62 NE5       30.19F HX  96
KINGSTREE      NOT AVBL
COLUMBIA       MOSUNNY   88  69  53 VRB5      30.19F HX  92
SUMTER         NOT AVBL
FLORENCE       MOSUNNY   89  70  53 VRB3      30.20F HX  94
MYRTLE BEACH   NOT AVBL
N MYRTLE BEACH CLOUDY    80  71  74 S6        30.21F

$$

GAZ063-065-086>088-099>101-113>116-118-119-134-136>141-150-121800-
...GEORGIA...

CITY           SKY/WX    TMP DP  RH WIND       PRES   REMARKS
SAVANNAH ARPT  PTSUNNY   82  73  74 SE7       30.19F
HUNTER AAF     NOT AVBL
FORT STEWART   NOT AVBL
STATESBORO     NOT AVBL
SYLVANIA       MOSUNNY   83  74  73 E3        30.20F HX  90
CLAXTON        FAIR      86  73  66 CALM      30.19F HX  93
THOMSON        MOSUNNY   89  74  61 E6        30.24F HX  99
AUGUSTA-BUSH   SUNNY     89  69  51 VRB3      30.18F HX  93
AUGUSTA-DANIEL MOSUNNY   89  68  49 VRB7      30.20F HX  93
SWAINSBORO     PTSUNNY   90  73  58 NE3       30.19F HX  98
VIDALIA          N/A     86  72  62 CALM      30.19F HX  92
ALMA           PTSUNNY   86  70  58 SE6       30.17F HX  90
WAYCROSS       MOSUNNY   88  75  65 E6        30.17F HX  97
JESUP          NOT AVBL
BRUNSWICK      PTSUNNY   81  72  74 CALM      30.20F
SAINT SIMONS   LGT RAIN  74  72  93 S5        30.19F FOG

$$

SCZ027-028-034-036>038-045-046-048>050-GAZ119-141-121800-
...LAKE AND SUPPLEMENTAL COASTAL OBSERVATIONS...

STATION/POSITION TIME  TEMP    WIND        PRES    WAVE   SWELL
                       AIR SEA DIR/SP/G            HT/PER HT/PER/DIR
                 (UTC) (F)     (DEG/KT/KT) (MB)    (FT/S) (FT/S/D)
UPR LAKE MARION  NOT AVBL
WINYAH BAY       1600   80      80/  5     1023.0S
LAKE MURRAY      1600   82     220/  5/  7 1022.4S
ACE BASIN NERRS  1600   74        CALM     1023.0S
FORT PULASKI     1700   77 77   50/  6/  7   N/A
SAPELO ISLAND    1600   73      50/  4     1023.0S

$$

ANZ835-935-AMZ111-154-330-350-352-354-374-450-454-472-121800-
...C-MAN AND BUOY OBSERVATIONS...

STATION/POSITION TIME  TEMP    WIND        PRES    WAVE   SWELL
                       AIR SEA DIR/SP/G            HT/PER HT/PER/DIR
                 (UTC) (F)     (DEG/KT/KT) (MB)    (FT/S) (FT/S/D)
FOLLY BEACH CMAN 1600   79     200/  6/  7 1023.3F
BUOY 41004       1700   74 82  180/  6/  8 1023.2R   2/ 8   2/ 8
BUOY 41008       1700   76 84   10/  8/ 10 1022.8R   2/ 9   2/100/ 9
5E ST. MARYS GA  1700      83                N/A     1/ 9
FRYING PAN BUOY  NOT AVBL
BUOY 41025       1700          VRB 10/ 12  1023.0S   2/ 8   2/110/ 8
CAPE LOOKOUT NC  1600   80      50/  7/  8 1023.1F
BUOY 41002       1639   80 83  170/  8/  8 1023.8R   2/ 8   2/130/ 8
BUOY 41010       1700   83 83  120/  8/ 10 1021.7F   2/ 7   2/130/ 7
BUOY 41012       NOT AVBL
ST AUGUSTINE FL  1700   80     100/  6/  7 1022.2R
CAPERS NEARSHORE 1600   81     160/  6/  8   N/A
FRIPP NEARSHORE  1600   74     310/  2/  4   N/A


$$



USA.gov is the U.S. government's official web portal to all federal, state and local government web resources and services.